COSMOS 2514 (751)

Last updated on Sun Jun 21 2026 00:03:28 GMT+0000 (Coordinated Universal Time)

1 41330U 16008A 26170.63146802 -.00000059 00000+0 00000+0 0 9995 2 41330 65.0201 312.9226 0011376 198.2261 161.7251 2.13102571 80675
UTC large
Height (km)
Speed (km/s)
/
Latitude / Longitude
Inclination (degrees)
Orbital Period (minutes)
Azimuth
Elevation
Range (km)
Doppler Factor

Next 0 passes for location: London (51.5072 / 0.1276)

No passes found over London.
COSMOS 2514 (751)